YZ-1S R/B (49386 NORAD) Tracking and Keplerian Element Data

This shows tracking and keplerian element data for the satellite.

Feedback or suggestion? Click here.




ElementValue
Catalog49386
NameYZ-1S R/B
Epoch Orbit467
Epoch Day337.22260914
Epoch Year2021
RAAN107.2234
Inclination98.0978
Eccentricity0.0199566
Argument of Perigee300.1333
Mean Anonmoly58.0289
Mean Motion15.87199069
Decay Rate0.00815841
L11 49386U 21099D 21337.22260914 .00815841 27906-5 52007-3 0 9996
L22 49386 98.0978 107.2234 0199566 300.1333 58.0289 15.87199069 4675

Live tracking and technical data element details for YZ-1S R/B (NORAD 49386). YZ-1S R/B can be tracked NOW for your location showing map with azimuth and elevation plus other details from your city location.

Track the satellite on the map from your city or location and see movement details for azimuth, elevation, latitude, longitude, range, height, and movement on the map or in text.







IsCatalogInMostPopularTable: catalog: 49386, numindb: 7
Update: records affected: 1



GetName: 49386 YZ-1S R/B

Hit Count: updated at: Thu, 20 Jan 2022 17:15:20 GMT